Location: Washington
(38.8950°N, 77.0370°W)
Time: 12:57:28
(UTC-04:00)

Amateur Radio Satellites - All Passes

Search period start: 27 August 2016 12:27
Search period end: 28 August 2016 12:27
Location: Washington, 38.8950°N, 77.0370°W

Satellite Date Start Highest point End Downlink Frequencies (MHz)
Time Altitude Azimuth
GONETS M04 27 Aug 12:38:10 12:46:54 81° 94° (E) 12:55:44
Gurwin Techsat 1B 27 Aug 12:46:07 12:47:09 11° 59° (ENE) 12:48:11 435.225
AIST 2 27 Aug 12:46:28 12:50:31 67° 118° (ESE) 12:54:37 435.215
DUCHIFAT 1 27 Aug 12:54:11 12:57:35 23° 265° (W) 13:01:00 145.980
QB50P2 27 Aug 12:56:44 12:59:43 18° 266° (W) 13:02:42 145.880/145.840
VELOX 1 27 Aug 12:57:17 13:01:46 70° 102° (ESE) 13:06:11 145.980
POLYITAN 1 27 Aug 12:59:17 13:02:14 18° 266° (W) 13:05:12 437.675
CUBEBUG 1 27 Aug 13:00:33 13:05:01 85° 284° (WNW) 13:09:25 437.445
JUGNU 27 Aug 13:01:02 13:02:46 11° 178° (S) 13:04:29 437.505
NANOSAT C BR1 27 Aug 13:08:49 13:11:20 15° 267° (W) 13:13:51 145.865
DANDE 27 Aug 13:11:29 13:15:33 20° 269° (W) 13:20:17 436.750
Oscar 19 27 Aug 13:14:02 13:18:52 42° 70° (ENE) 13:23:44 437.125/150
AUBIESAT-1 27 Aug 13:14:49 13:18:21 29° 296° (WNW) 13:21:39 437.475
DX 1 27 Aug 13:16:04 13:20:28 76° 102° (ESE) 13:24:50 434.975-435.025
SPROUT 27 Aug 13:20:11 13:24:27 65° 101° (E) 13:28:40 437.525
M-CUBED/EXP-1 PRIME 27 Aug 13:20:26 13:23:37 22° 298° (WNW) 13:26:37 437.505
RS-15 27 Aug 13:25:55 13:34:57 25° 260° (W) 13:43:51 29.354- 29.394
PCSat 27 Aug 13:35:37 13:40:14 28° 309° (NW) 13:44:53 145.827
ESTCUBE 1 27 Aug 13:36:59 13:40:35 24° 292° (WNW) 13:44:11 437.505/2401.250
TISAT 1 27 Aug 13:41:27 13:44:43 22° 95° (E) 13:47:58 437.305
O/OREOS (USA 219) 27 Aug 13:43:24 13:47:10 27° 103° (ESE) 13:50:58 437.305
AO-85 27 Aug 13:44:42 13:47:22 16° 43° (NE) 13:49:55 145.980
AISAT 27 Aug 13:46:39 13:50:37 32° 290° (WNW) 13:54:32 437.250
50 SAT 27 Aug 13:46:57 13:49:52 23° 290° (WNW) 13:52:47 437.505
BUGSAT 1 27 Aug 13:52:51 13:54:39 12° 269° (W) 13:56:27 437.445
UKube-1 27 Aug 13:57:31 14:01:40 46° 288° (WNW) 14:05:48 .
Cosmos 2499 27 Aug 14:00:51 14:08:19 38° 285° (WNW) 14:15:21 435.465 / 435.565
JAS-2 27 Aug 14:08:08 14:10:29 13° 271° (W) 14:12:53 435.910
ISS 27 Aug 14:12:37 14:14:28 14° 18° (NNE) 14:16:19 145.825
Gurwin Techsat 1B 27 Aug 14:20:55 14:26:13 83° 75° (ENE) 14:31:34 435.225
AIST 2 27 Aug 14:27:17 14:29:25 14° 316° (NW) 14:31:35 435.215
ITAMSAT 1 27 Aug 14:27:52 14:32:18 29° 67° (ENE) 14:36:44 435.822/435.867
VELOX 1 27 Aug 14:36:18 14:37:36 11° 298° (WNW) 14:38:55 145.980
SRMSAT 27 Aug 14:38:08 14:39:00 10° 174° (S) 14:39:53 437.500
GONETS M04 27 Aug 14:38:37 14:44:45 21° 295° (WNW) 14:50:58
SWISSCUBE 27 Aug 14:38:42 14:42:14 20° 94° (E) 14:45:44 437.505
Oscar 19 27 Aug 14:54:25 14:58:20 22° 266° (W) 15:02:17 437.125/150
BEESAT 27 Aug 14:55:28 14:59:31 27° 96° (E) 15:03:32 436.000
DX 1 27 Aug 14:55:45 14:56:00 10° 299° (WNW) 14:56:15 434.975-435.025
SPROUT 27 Aug 14:58:38 14:59:49 11° 297° (WNW) 15:01:00 437.525
AO-7 27 Aug 15:00:56 15:08:40 44° 63° (ENE) 15:16:24 29.400- 29.500
TISAT 1 27 Aug 15:16:44 15:20:21 28° 290° (WNW) 15:23:55 437.305
O/OREOS (USA 219) 27 Aug 15:22:40 15:26:29 27° 299° (WNW) 15:30:21 437.305
AO-85 27 Aug 15:24:05 15:28:12 53° 243° (WSW) 15:32:00 145.980
ITUPSAT 1 27 Aug 15:42:09 15:46:57 83° 103° (ESE) 15:51:44 437.325
ISS 27 Aug 15:48:11 15:51:28 63° 37° (NE) 15:54:42 145.825
Gurwin Techsat 1B 27 Aug 16:05:35 16:06:46 11° 271° (W) 16:07:58 435.225
ITAMSAT 1 27 Aug 16:07:04 16:11:39 32° 263° (W) 16:16:16 435.822/435.867
SWISSCUBE 27 Aug 16:15:43 16:20:08 39° 289° (WNW) 16:24:32 437.505
SRMSAT 27 Aug 16:25:53 16:27:14 11° 184° (S) 16:28:35 437.500
BEESAT 27 Aug 16:33:09 16:37:14 29° 292° (WNW) 16:41:19 436.000
YUBILEINY 27 Aug 16:39:39 16:46:21 24° 67° (ENE) 16:52:59 435.215
KKS-1 27 Aug 16:44:31 16:48:46 42° 99° (E) 16:52:58 437.445
MOZHAYETS 4 27 Aug 16:48:12 16:52:45 63° 101° (E) 16:57:17
AO-7 27 Aug 16:53:39 17:01:23 41° 260° (W) 17:09:11 29.400- 29.500
HORYU 2 27 Aug 17:03:24 17:07:43 51° 73° (ENE) 17:12:02 437.375
CUTE-I 27 Aug 17:08:34 17:10:46 13° 60° (ENE) 17:12:57 437.470
NOAA 15 27 Aug 17:09:26 17:12:40 17° 62° (ENE) 17:15:53 137.62
BRITE-PL 27 Aug 17:18:44 17:22:52 29° 67° (ENE) 17:27:18 437.365/2234.400
STARS 27 Aug 17:21:02 17:25:19 51° 100° (E) 17:29:35 437.465
ITUPSAT 1 27 Aug 17:23:05 17:24:04 11° 299° (WNW) 17:25:03 437.325
ISS 27 Aug 17:26:07 17:27:32 12° 232° (SW) 17:28:58 145.825
LilacSat-2 27 Aug 17:33:56 17:35:54 14° 67° (ENE) 17:37:53 437.200
BEESAT 3 27 Aug 17:41:42 17:42:17 10° 42° (NE) 17:42:51 437.485
NOAA 18 27 Aug 17:44:10 17:48:40 26° 65° (ENE) 17:53:10 137.9125
CUBESAT XI-V 27 Aug 18:07:35 18:12:12 55° 100° (E) 18:16:49 437.345
Cosmos 2491 27 Aug 18:14:20 18:22:35 50° 89° (E) 18:30:53 435.465 / 435.565
KKS-1 27 Aug 18:22:02 18:24:59 18° 295° (WNW) 18:27:56 437.445
MOZHAYETS 4 27 Aug 18:27:22 18:29:21 13° 297° (WNW) 18:31:20
Cubesat XI-IV 27 Aug 18:32:48 18:38:08 76° 74° (ENE) 18:43:29 437.490
GOMX 1 27 Aug 18:32:48 18:37:49 72° 75° (ENE) 18:43:09 467.674
YUBILEINY 27 Aug 18:35:14 18:43:58 72° 267° (W) 18:52:35 435.215
DOVE 4 27 Aug 18:40:36 18:45:24 40° 71° (ENE) 18:50:19 437.250
HORYU 2 27 Aug 18:42:15 18:44:32 14° 268° (W) 18:46:48 437.375
CUTE-I 27 Aug 18:44:43 18:50:04 84° 256° (WSW) 18:55:25 437.470
NOAA 15 27 Aug 18:46:43 18:51:53 62° 258° (WSW) 18:57:07 137.62
Cosmos 2504 27 Aug 18:55:20 19:02:27 57° 79° (E) 19:09:28 435.465 / 435.565
BRITE-PL 27 Aug 18:57:03 19:01:15 30° 266° (W) 19:05:46 437.365/2234.400
BEESAT 2 27 Aug 18:58:24 19:01:57 29° 52° (NE) 19:05:27 435.950
STARS 27 Aug 18:58:51 19:01:13 14° 296° (WNW) 19:03:35 437.465
LilacSat-2 27 Aug 19:06:14 19:09:51 39° 261° (W) 19:13:29 437.200
HO-68 27 Aug 19:09:09 19:15:16 31° 62° (ENE) 19:21:24 435.675
BEESAT 3 27 Aug 19:16:33 19:20:33 90° 85° (E) 19:24:30 437.485
CINEMA 3 27 Aug 19:22:56 19:27:17 30° 70° (ENE) 19:31:36 145.822/145.860
NOAA 18 27 Aug 19:23:52 19:29:04 41° 261° (W) 19:34:17 137.9125
STRAND 1 27 Aug 19:24:50 19:28:17 18° 93° (E) 19:31:43 437.568
CUBEBUG 2 27 Aug 19:43:56 19:46:15 14° 65° (ENE) 19:48:33 437.445
CUBESAT XI-V 27 Aug 19:46:25 19:49:07 15° 296° (WNW) 19:51:47 437.345
SEEDS 27 Aug 19:49:11 19:52:36 25° 70° (ENE) 19:56:02 437.485
AIST 1 27 Aug 19:50:16 19:52:33 14° 71° (ENE) 19:54:49
CANX-2 27 Aug 20:09:37 20:13:49 76° 75° (ENE) 20:18:01 2200.000
Cosmos 2491 27 Aug 20:11:55 20:19:37 34° 288° (WNW) 20:27:25 435.465 / 435.565
GOMX 1 27 Aug 20:14:16 20:16:28 13° 272° (W) 20:18:44 467.674
CUTE 1.7 + AOD 2 27 Aug 20:15:45 20:19:56 77° 76° (ENE) 20:24:09 437.475
Cubesat XI-IV 27 Aug 20:16:37 20:18:44 12° 270° (W) 20:20:51 437.490
DOVE 4 27 Aug 20:19:04 20:23:10 24° 267° (W) 20:27:23 437.250
AAUSAT CUBESAT 2 27 Aug 20:20:21 20:23:57 30° 71° (ENE) 20:27:34 437.432
COMPASS 1 27 Aug 20:27:55 20:31:52 48° 74° (ENE) 20:35:52 437.405
BEESAT 2 27 Aug 20:36:26 20:39:37 23° 248° (WSW) 20:42:48 435.950
YUBILEINY 27 Aug 20:36:33 20:39:01 11° 286° (WNW) 20:41:30 435.215
PCSat 27 Aug 20:40:50 20:45:25 27° 51° (NE) 20:49:59 145.827
Cosmos 2504 27 Aug 20:49:55 20:55:11 22° 277° (W) 21:00:25 435.465 / 435.565
HO-68 27 Aug 20:55:45 21:02:40 50° 260° (W) 21:09:38 435.675
CINEMA 3 27 Aug 20:59:58 21:04:19 29° 265° (W) 21:08:40 145.822/145.860
Oscar 11 27 Aug 21:01:54 21:05:52 36° 72° (ENE) 21:09:49 145.826/435.025
STRAND 1 27 Aug 21:02:47 21:07:42 49° 289° (WNW) 21:12:36 437.568
PRISM 27 Aug 21:04:38 21:07:36 19° 94° (E) 21:10:34 437.425
FUNcube-1 27 Aug 21:09:04 21:13:16 42° 73° (ENE) 21:17:23 145.935
AIST 2 27 Aug 21:09:05 21:12:49 30° 52° (NE) 21:16:31 435.215
UWE-3 27 Aug 21:15:28 21:20:03 86° 81° (E) 21:24:34 435.000/436.395/437.385
CUBEBUG 2 27 Aug 21:17:43 21:22:22 60° 259° (W) 21:26:56 437.445
SEEDS 27 Aug 21:24:52 21:28:14 24° 265° (W) 21:31:36 437.485
AIST 1 27 Aug 21:26:11 21:30:26 47° 267° (W) 21:34:37
ZACube-1 27 Aug 21:30:13 21:34:42 79° 77° (ENE) 21:39:06 437.345
AAUSAT CUBESAT 2 27 Aug 21:56:31 21:59:27 19° 266° (W) 22:02:25 437.432
DELFI C3 27 Aug 21:58:58 22:02:52 67° 75° (ENE) 22:06:47 145.870
COMPASS 1 27 Aug 22:06:04 22:07:42 12° 269° (W) 22:09:20 437.405
HUMSAT D 27 Aug 22:16:54 22:20:56 50° 74° (ENE) 22:24:56 437.325/437.525
PCSat 27 Aug 22:23:51 22:28:57 42° 249° (WSW) 22:34:01 145.827
AUBIESAT-1 27 Aug 22:24:33 22:28:19 25° 63° (ENE) 22:32:06 437.475
M-CUBED/EXP-1 PRIME 27 Aug 22:29:42 22:33:55 34° 65° (ENE) 22:38:10 437.505
ANTELSAT 27 Aug 22:30:13 22:33:00 17° 93° (E) 22:35:46 437.575/2403.000
Oscar 11 27 Aug 22:39:12 22:42:06 18° 267° (W) 22:45:00 145.826/435.025
PRISM 27 Aug 22:39:13 22:42:57 33° 290° (WNW) 22:46:42 437.425
FUNcube-1 27 Aug 22:46:51 22:49:38 16° 267° (W) 22:52:25 145.935
AIST 2 27 Aug 22:47:45 22:51:09 24° 248° (WSW) 22:54:33 435.215
GONETS M04 27 Aug 22:50:22 22:58:29 38° 73° (ENE) 23:06:31
ESTCUBE 1 27 Aug 22:58:30 23:02:08 25° 68° (ENE) 23:05:48 437.505/2401.250
TIGRISAT 27 Aug 23:00:14 23:04:10 35° 97° (E) 23:08:02 435.000
AISAT 27 Aug 23:07:18 23:10:17 18° 66° (ENE) 23:13:18 437.250
UKube-1 27 Aug 23:17:50 23:19:06 11° 62° (ENE) 23:20:22 .
UNISAT 6 27 Aug 23:28:38 23:32:56 83° 103° (ESE) 23:37:12 437.425
RS-15 27 Aug 23:30:26 23:33:40 12° 93° (E) 23:36:57 29.354- 29.394
JAS-2 27 Aug 23:32:33 23:33:44 10° 88° (E) 23:34:56 435.910
CUSAT 1 27 Aug 23:40:15 23:42:56 39° 93° (E) 23:46:09 437.405
Cosmos 2499 27 Aug 23:52:24 23:59:27 69° 81° (E) 00:06:35 435.465 / 435.565
VELOX 1 27 Aug 23:53:05 23:57:23 52° 73° (ENE) 00:01:43 145.980
O/OREOS (USA 219) 27 Aug 23:53:50 23:58:14 43° 64° (ENE) 00:02:37 437.305
CUBEBUG 1 27 Aug 23:54:51 23:59:12 67° 75° (ENE) 00:03:36 437.445
HUMSAT D 27 Aug 23:55:16 23:56:48 12° 269° (W) 23:58:22 437.325/437.525
SO-50 27 Aug 23:57:29 00:02:19 70° 119° (ESE) 00:07:08 436.795
AUBIESAT-1 27 Aug 23:58:22 00:02:33 34° 258° (WSW) 00:06:47 437.475
QB50P1 28 Aug 00:01:25 00:04:52 24° 95° (E) 00:08:18 145.935-145.965
M-CUBED/EXP-1 PRIME 28 Aug 00:04:34 00:08:23 25° 260° (W) 00:12:16 437.505
ANTELSAT 28 Aug 00:05:54 00:09:51 37° 289° (WNW) 00:13:46 437.575/2403.000
DX 1 28 Aug 00:10:03 00:14:19 54° 73° (ENE) 00:18:36 434.975-435.025
POPSAT HIP 1 28 Aug 00:11:12 00:14:57 31° 97° (E) 00:18:41 437.405
SPROUT 28 Aug 00:12:17 00:16:19 41° 72° (ENE) 00:20:23 437.525
50 SAT 28 Aug 00:22:02 00:25:34 64° 259° (W) 00:29:08 437.505
TISAT 1 28 Aug 00:32:43 00:35:10 15° 65° (ENE) 00:37:38 437.305
ESTCUBE 1 28 Aug 00:34:57 00:38:49 28° 264° (W) 00:42:42 437.505/2401.250
TIGRISAT 28 Aug 00:37:38 00:40:36 19° 293° (WNW) 00:43:32 435.000
DANDE 28 Aug 00:38:26 00:40:58 60° 97° (E) 00:43:39 436.750
DUCHIFAT 1 28 Aug 00:38:29 00:42:38 59° 100° (E) 00:46:45 145.980
QB50P2 28 Aug 00:41:17 00:45:31 79° 101° (ESE) 00:49:43 145.880/145.840
AISAT 28 Aug 00:42:14 00:46:25 41° 261° (W) 00:50:40 437.250
POLYITAN 1 28 Aug 00:43:48 00:48:02 80° 102° (ESE) 00:52:13 437.675
GONETS M04 28 Aug 00:47:06 00:55:21 46° 272° (W) 01:03:35
UKube-1 28 Aug 00:50:16 00:54:33 67° 258° (WSW) 00:58:53 .
NANOSAT C BR1 28 Aug 00:52:19 00:56:33 87° 280° (W) 01:00:44 145.865
JAS-2 28 Aug 01:12:38 01:19:31 70° 102° (ESE) 01:27:06 435.910
Oscar 19 28 Aug 01:27:58 01:31:10 16° 92° (E) 01:34:21 437.125/150
VELOX 1 28 Aug 01:32:00 01:34:08 13° 268° (W) 01:36:17 145.980
RS-15 28 Aug 01:32:12 01:43:25 65° 113° (ESE) 01:55:16 29.354- 29.394
BUGSAT 1 28 Aug 01:33:07 01:37:16 76° 284° (WNW) 01:41:19 437.445
O/OREOS (USA 219) 28 Aug 01:34:18 01:37:15 17° 260° (W) 01:40:11 437.305
QB50P1 28 Aug 01:37:05 01:40:34 25° 291° (WNW) 01:44:01 145.935-145.965
SO-50 28 Aug 01:40:06 01:43:17 17° 317° (NW) 01:46:27 436.795
SWISSCUBE 28 Aug 01:44:12 01:47:45 21° 66° (ENE) 01:51:18 437.505
Cosmos 2499 28 Aug 01:47:20 01:51:45 18° 278° (W) 01:56:13 435.465 / 435.565
POPSAT HIP 1 28 Aug 01:47:24 01:50:32 20° 292° (WNW) 01:53:38 437.405
DX 1 28 Aug 01:49:02 01:50:49 12° 269° (W) 01:52:37 434.975-435.025
SPROUT 28 Aug 01:49:46 01:52:25 16° 267° (W) 01:55:05 437.525
BEESAT 28 Aug 02:00:44 02:04:46 28° 68° (ENE) 02:08:47 436.000
TISAT 1 28 Aug 02:06:21 02:10:25 45° 261° (W) 02:14:31 437.305
DUCHIFAT 1 28 Aug 02:16:22 02:17:48 12° 296° (WNW) 02:19:13 145.980
PHONESAT 2.4 28 Aug 02:19:38 02:22:31 44° 158° (SSE) 02:25:25 2401.200-2431.200
Gurwin Techsat 1B 28 Aug 02:38:39 02:43:33 36° 97° (E) 02:48:24 435.225
ITAMSAT 1 28 Aug 02:44:40 02:45:28 10° 89° (E) 02:46:17 435.822/435.867
ITUPSAT 1 28 Aug 02:47:27 02:52:13 84° 75° (ENE) 02:57:00 437.325
JAS-2 28 Aug 02:58:56 03:04:02 23° 297° (WNW) 03:09:29 435.910
Oscar 19 28 Aug 03:05:42 03:10:49 56° 288° (WNW) 03:15:53 437.125/150
AO-7 28 Aug 03:07:06 03:10:05 12° 89° (E) 03:13:02 29.400- 29.500
SWISSCUBE 28 Aug 03:20:51 03:25:15 38° 261° (W) 03:29:42 437.505
BEESAT 28 Aug 03:38:22 03:42:27 28° 264° (W) 03:46:34 436.000
KKS-1 28 Aug 03:41:17 03:45:18 33° 70° (ENE) 03:49:21 437.445
RS-15 28 Aug 03:45:45 03:56:35 42° 318° (NW) 04:07:58 29.354- 29.394
MOZHAYETS 4 28 Aug 03:48:39 03:53:03 51° 73° (ENE) 03:57:29
PHONESAT 2.4 28 Aug 03:55:51 03:58:50 65° 354° (N) 04:01:49 2401.200-2431.200
STARS 28 Aug 04:16:16 04:20:22 39° 71° (ENE) 04:24:30 437.465
Gurwin Techsat 1B 28 Aug 04:18:54 04:23:18 27° 293° (WNW) 04:27:41 435.225
ITAMSAT 1 28 Aug 04:20:19 04:25:31 83° 285° (WNW) 04:30:42 435.822/435.867
Cosmos 2491 28 Aug 04:26:47 04:33:26 23° 67° (ENE) 04:40:02 435.465 / 435.565
AO-7 28 Aug 04:55:45 05:04:05 74° 106° (ESE) 05:12:21 29.400- 29.500
HORYU 2 28 Aug 04:59:04 04:59:10 10° 90° (E) 04:59:16 437.375
CUBESAT XI-V 28 Aug 05:09:32 05:13:55 45° 73° (ENE) 05:18:19 437.345
KKS-1 28 Aug 05:18:31 05:21:55 21° 265° (W) 05:25:20 437.445
BRITE-PL 28 Aug 05:26:14 05:28:31 12° 87° (E) 05:30:47 437.365/2234.400
MOZHAYETS 4 28 Aug 05:28:04 05:30:30 14° 268° (W) 05:32:55
PHONESAT 2.4 28 Aug 05:32:18 05:35:18 78° 9° (N) 05:38:18 2401.200-2431.200
AO-85 28 Aug 05:35:33 05:40:51 67° 118° (ESE) 05:45:54 145.980
YUBILEINY 28 Aug 05:39:31 05:46:35 28° 83° (E) 05:53:39 435.215
STARS 28 Aug 05:53:50 05:56:51 18° 266° (W) 05:59:53 437.465
ITAMSAT 1 28 Aug 06:03:48 06:04:08 10° 302° (WNW) 06:04:27 435.822/435.867
RS-15 28 Aug 06:05:38 06:13:50 20° 351° (N) 06:22:11 29.354- 29.394
NOAA 18 28 Aug 06:10:00 06:10:57 10° 89° (E) 06:11:54 137.9125
Cosmos 2491 28 Aug 06:22:19 06:31:08 74° 266° (W) 06:39:55 435.465 / 435.565
HORYU 2 28 Aug 06:31:45 06:36:08 66° 286° (WNW) 06:40:30 437.375
GOMX 1 28 Aug 06:36:44 06:41:12 26° 93° (E) 06:45:27 467.674
STRAND 1 28 Aug 06:39:27 06:43:28 24° 66° (ENE) 06:47:28 437.568
LilacSat-2 28 Aug 06:41:08 06:44:06 22° 95° (E) 06:47:03 437.200
DOVE 4 28 Aug 06:43:30 06:45:12 12° 88° (E) 06:46:51 437.250
CUBESAT XI-V 28 Aug 06:48:39 06:51:30 16° 268° (W) 06:54:23 437.345
AO-7 28 Aug 06:49:43 06:56:03 25° 305° (NW) 07:02:23 29.400- 29.500
Cubesat XI-IV 28 Aug 06:51:39 06:56:25 33° 97° (E) 07:01:09 437.490
BRITE-PL 28 Aug 07:01:52 07:07:37 83° 284° (WNW) 07:13:11 437.365/2234.400
NOAA 15 28 Aug 07:02:59 07:08:13 55° 101° (E) 07:13:25 137.62
CUTE-I 28 Aug 07:03:11 07:08:14 43° 99° (E) 07:13:15 437.470
PHONESAT 2.4 28 Aug 07:08:51 07:11:31 29° 206° (SSW) 07:14:09 2401.200-2431.200
AO-85 28 Aug 07:18:00 07:21:44 19° 314° (NW) 07:25:19 145.980
Cosmos 2504 28 Aug 07:30:57 07:39:07 53° 91° (E) 07:46:45 435.465 / 435.565
YUBILEINY 28 Aug 07:34:02 07:42:44 60° 281° (W) 07:51:28 435.215
NOAA 18 28 Aug 07:46:46 07:52:16 87° 285° (WNW) 07:57:43 137.9125
PRISM 28 Aug 07:54:21 07:55:57 12° 64° (ENE) 07:57:33 437.425
CANX-2 28 Aug 07:57:16 07:59:36 14° 92° (E) 08:01:53 2200.000
CUTE 1.7 + AOD 2 28 Aug 08:03:16 08:05:36 14° 92° (E) 08:07:56 437.475
GOMX 1 28 Aug 08:14:22 08:19:19 37° 290° (WNW) 08:24:01 467.674
LilacSat-2 28 Aug 08:15:20 08:18:18 22° 290° (WNW) 08:21:16 437.200
STRAND 1 28 Aug 08:17:39 08:22:23 38° 262° (W) 08:27:09 437.568
DOVE 4 28 Aug 08:18:26 08:23:28 70° 285° (WNW) 08:28:10 437.250
RS-15 28 Aug 08:22:41 08:32:33 26° 27° (NNE) 08:42:22 29.354- 29.394
Cosmos 2491 28 Aug 08:23:09 08:26:18 12° 285° (WNW) 08:29:28 435.465 / 435.565
HO-68 28 Aug 08:24:49 08:31:16 35° 97° (E) 08:37:40 435.675
ISS 28 Aug 08:27:04 08:30:06 36° 135° (SE) 08:33:09 145.825
SO-50 28 Aug 08:30:24 08:34:48 42° 53° (NE) 08:39:04 436.795
Cubesat XI-IV 28 Aug 08:31:49 08:36:22 30° 293° (WNW) 08:40:55 437.490
BRITE-PL 28 Aug 08:43:04 08:45:08 12° 301° (WNW) 08:47:11 437.365/2234.400
CUTE-I 28 Aug 08:43:52 08:47:58 23° 295° (WNW) 08:52:05 437.470
NOAA 15 28 Aug 08:43:55 08:47:31 19° 297° (WNW) 08:51:08 137.62
CINEMA 3 28 Aug 08:55:37 09:00:10 80° 103° (ESE) 09:04:27 145.822/145.860
BEESAT 3 28 Aug 09:06:46 09:09:35 19° 111° (ESE) 09:12:26 437.485
UWE-3 28 Aug 09:07:36 09:10:22 17° 93° (E) 09:13:07 435.000/436.395/437.385
SEEDS 28 Aug 09:08:50 09:13:00 58° 100° (E) 09:17:10 437.485
CUBEBUG 2 28 Aug 09:10:24 09:14:05 28° 96° (E) 09:17:40 437.445
ZACube-1 28 Aug 09:21:13 09:23:40 15° 92° (E) 09:26:06 437.345
Cosmos 2504 28 Aug 09:25:31 09:32:42 31° 288° (WNW) 09:39:32 435.465 / 435.565
PRISM 28 Aug 09:26:46 09:30:45 54° 259° (W) 09:34:48 437.425
ANTELSAT 28 Aug 09:28:17 09:30:54 15° 65° (ENE) 09:33:29 437.575/2403.000
NOAA 18 28 Aug 09:30:12 09:32:04 12° 302° (WNW) 09:33:56 137.9125
CANX-2 28 Aug 09:31:37 09:35:38 44° 287° (WNW) 09:39:40 2200.000
CUTE 1.7 + AOD 2 28 Aug 09:37:37 09:41:38 43° 287° (WNW) 09:45:39 437.475
AAUSAT CUBESAT 2 28 Aug 09:38:25 09:42:34 69° 101° (E) 09:46:44 437.432
YUBILEINY 28 Aug 09:40:28 09:41:38 10° 303° (WNW) 09:42:48 435.215
COMPASS 1 28 Aug 09:47:02 09:51:13 72° 284° (WNW) 09:55:23 437.405
AIST 1 28 Aug 09:53:35 09:57:55 77° 278° (W) 10:02:19
TIGRISAT 28 Aug 09:57:31 10:01:28 29° 70° (ENE) 10:05:21 435.000
ISS 28 Aug 10:03:48 10:06:37 26° 332° (NNW) 10:09:26 145.825
CUSAT 1 28 Aug 10:10:46 10:17:01 44° 77° (ENE) 10:24:19 437.405
SO-50 28 Aug 10:11:42 10:14:56 19° 250° (WSW) 10:18:05 436.795
HO-68 28 Aug 10:12:22 10:19:00 43° 294° (WNW) 10:25:37 435.675
UNISAT 6 28 Aug 10:25:39 10:30:12 62° 75° (ENE) 10:34:41 437.425
Oscar 11 28 Aug 10:25:48 10:30:08 89° 288° (WNW) 10:34:27 145.826/435.025
BEESAT 2 28 Aug 10:26:02 10:29:58 81° 120° (ESE) 10:33:58 435.950
FUNcube-1 28 Aug 10:34:10 10:38:19 76° 283° (WNW) 10:42:25 145.935
RS-15 28 Aug 10:35:27 10:47:52 70° 55° (NE) 10:59:59 29.354- 29.394
UWE-3 28 Aug 10:43:10 10:46:57 34° 288° (WNW) 10:50:41 435.000/436.395/437.385
BEESAT 3 28 Aug 10:43:29 10:47:01 32° 307° (NW) 10:50:37 437.485
SEEDS 28 Aug 10:46:42 10:48:11 12° 296° (WNW) 10:49:40 437.485
CUBEBUG 2 28 Aug 10:47:20 10:50:32 21° 292° (WNW) 10:53:41 437.445
QB50P1 28 Aug 10:53:18 10:56:03 17° 66° (ENE) 10:58:49 145.935-145.965
ZACube-1 28 Aug 10:56:15 11:00:07 38° 288° (WNW) 11:03:57 437.345
ANTELSAT 28 Aug 11:02:41 11:07:10 52° 260° (W) 11:11:37 437.575/2403.000
POPSAT HIP 1 28 Aug 11:02:50 11:06:03 21° 68° (ENE) 11:09:17 437.405
DELFI C3 28 Aug 11:12:17 11:16:14 59° 285° (WNW) 11:20:10 145.870
DANDE 28 Aug 11:12:56 11:18:23 53° 79° (E) 11:25:24 436.750
PCSat 28 Aug 11:21:25 11:26:01 29° 109° (ESE) 11:30:39 145.827
JAS-2 28 Aug 11:26:13 11:30:06 21° 63° (ENE) 11:34:10 435.910
DUCHIFAT 1 28 Aug 11:28:59 11:32:52 36° 72° (ENE) 11:36:47 145.980
QB50P2 28 Aug 11:32:21 11:36:28 48° 73° (ENE) 11:40:36 145.880/145.840
TIGRISAT 28 Aug 11:34:15 11:38:05 26° 264° (W) 11:41:53 435.000
POLYITAN 1 28 Aug 11:34:51 11:38:59 49° 73° (ENE) 11:43:08 437.675
HUMSAT D 28 Aug 11:36:44 11:40:48 69° 284° (WNW) 11:44:52 437.325/437.525
AUBIESAT-1 28 Aug 11:39:37 11:42:13 17° 97° (E) 11:44:41 437.475
NANOSAT C BR1 28 Aug 11:42:48 11:46:58 57° 75° (ENE) 11:51:10 145.865
M-CUBED/EXP-1 PRIME 28 Aug 11:45:19 11:48:42 25° 100° (E) 11:51:51 437.505
CUBEBUG 1 28 Aug 11:46:20 11:48:35 14° 92° (E) 11:50:50 437.445
VELOX 1 28 Aug 11:47:06 11:48:08 11° 90° (E) 11:49:09 145.980
GONETS M04 28 Aug 11:49:43 11:57:51 45° 88° (E) 12:06:02
CUSAT 1 28 Aug 11:52:57 11:58:54 35° 268° (W) 12:05:44 437.405
50 SAT 28 Aug 11:53:46 11:54:32 10° 92° (E) 11:55:17 437.505
DX 1 28 Aug 12:02:44 12:03:08 10° 90° (E) 12:03:30 434.975-435.025
UNISAT 6 28 Aug 12:05:35 12:07:15 12° 269° (W) 12:08:54 437.425
BEESAT 2 28 Aug 12:07:04 12:08:20 11° 318° (NW) 12:09:36 435.950
